When you browse on this site, cookies collect data to enhance your experience and personalize the content and advertising you see.
Visit our Privacy Policy to learn more. By continuing to use the site, you agree to this use of cookies and data.
  • In Netherlands
  • List of Countries
  • For 7 days
  • Water Temperature
  • Satellite Maps
  • Weather Map
  • Weather Widgets
  • user-avatar
    Login

    Hourly Weather Sadovyy

    Today, 21 July, Sunday

    Time Temperature Precipitation Wind Pressure Humidity
    00:00 +26°C° 0 mm 1 mps 750 mmHg 60%
    01:00 +25°C° 0 mm 1 mps 750 mmHg 64%
    02:00 +25°C° 0 mm 1 mps 750 mmHg 67%
    03:00 +24°C° 0 mm 1 mps 749 mmHg 70%
    04:00 +24°C° 0 mm 1 mps 749 mmHg 71%
    05:00 +25°C° 0 mm 1 mps 749 mmHg 71%
    06:00 +25°C° 0 mm 1 mps 749 mmHg 72%
    07:00 +26°C° 0 mm 1 mps 749 mmHg 64%
    08:00 +28°C° 0 mm 2 mps 749 mmHg 56%
    09:00 +30°C° 0 mm 3 mps 748 mmHg 49%
    10:00 +31°C° 0 mm 3 mps 748 mmHg 45%
    11:00 +34°C° 0 mm 4 mps 748 mmHg 42%
    12:00 +35°C° 0 mm 4 mps 748 mmHg 38%
    13:00 +36°C° 0 mm 5 mps 747 mmHg 36%
    14:00 +36°C° 0 mm 5 mps 747 mmHg 34%
    15:00 +38°C° 0 mm 6 mps 747 mmHg 32%
    16:00 +36°C° 0 mm 6 mps 747 mmHg 35%
    17:00 +35°C° 0 mm 5 mps 747 mmHg 37%
    18:00 +34°C° 0 mm 5 mps 747 mmHg 40%
    19:00 +32°C° 0 mm 5 mps 747 mmHg 42%
    20:00 +30°C° 0 mm 4 mps 747 mmHg 44%
    21:00 +28°C° 0 mm 4 mps 747 mmHg 45%
    22:00 +27°C° 0.4 mm 3 mps 747 mmHg 52%
    23:00 +26°C° 0.4 mm 3 mps 747 mmHg 59%

    Tomorrow, 22 July, Monday

    Time Temperature Precipitation Wind Pressure Humidity
    00:00 +25°C° 0.4 mm 2 mps 747 mmHg 67%
    01:00 +25°C° 0 mm 2 mps 747 mmHg 69%
    02:00 +25°C° 0 mm 2 mps 747 mmHg 72%
    03:00 +24°C° 0 mm 2 mps 747 mmHg 74%
    04:00 +24°C° 0.1 mm 2 mps 748 mmHg 76%
    05:00 +24°C° 0.1 mm 3 mps 748 mmHg 78%
    06:00 +24°C° 0.1 mm 3 mps 748 mmHg 80%
    07:00 +24°C° 0 mm 3 mps 748 mmHg 77%
    08:00 +24°C° 0 mm 2 mps 748 mmHg 75%
    09:00 +24°C° 0 mm 2 mps 748 mmHg 72%
    10:00 +26°C° 0 mm 2 mps 748 mmHg 66%
    11:00 +27°C° 0 mm 2 mps 748 mmHg 61%
    12:00 +28°C° 0 mm 2 mps 748 mmHg 55%
    13:00 +29°C° 0 mm 2 mps 748 mmHg 52%
    14:00 +30°C° 0 mm 2 mps 748 mmHg 50%
    15:00 +30°C° 0 mm 2 mps 748 mmHg 47%
    16:00 +29°C° 0.2 mm 2 mps 748 mmHg 52%
    17:00 +28°C° 0.2 mm 2 mps 748 mmHg 58%
    18:00 +27°C° 0.2 mm 2 mps 748 mmHg 63%
    19:00 +27°C° 0 mm 2 mps 748 mmHg 65%
    20:00 +26°C° 0 mm 2 mps 748 mmHg 67%
    21:00 +25°C° 0 mm 2 mps 748 mmHg 69%
    22:00 +25°C° 0.3 mm 2 mps 748 mmHg 74%
    23:00 +24°C° 0.3 mm 2 mps 748 mmHg 78%

    Day after tomorrow, 23 July, Tuesday

    Time Temperature Precipitation Wind Pressure Humidity
    00:00 +23°C° 0.3 mm 2 mps 748 mmHg 82%
    01:00 +23°C° 0.4 mm 2 mps 747 mmHg 83%
    02:00 +23°C° 0.4 mm 1 mps 747 mmHg 84%
    03:00 +23°C° 0.4 mm 1 mps 747 mmHg 85%
    04:00 +23°C° 0.3 mm 1 mps 747 mmHg 85%
    05:00 +23°C° 0.3 mm 1 mps 747 mmHg 84%
    06:00 +21°C° 0.3 mm 0 mps 747 mmHg 84%
    07:00 +24°C° 0.1 mm 1 mps 746 mmHg 80%
    08:00 +25°C° 0.1 mm 1 mps 746 mmHg 76%
    09:00 +25°C° 0.1 mm 2 mps 746 mmHg 72%
    10:00 +26°C° 0 mm 2 mps 746 mmHg 67%
    11:00 +27°C° 0 mm 2 mps 746 mmHg 63%
    12:00 +28°C° 0 mm 2 mps 746 mmHg 58%
    13:00 +28°C° 0.1 mm 2 mps 745 mmHg 58%
    14:00 +28°C° 0.1 mm 2 mps 745 mmHg 59%
    15:00 +28°C° 0.1 mm 2 mps 745 mmHg 59%
    16:00 +28°C° 0.1 mm 2 mps 745 mmHg 60%
    17:00 +28°C° 0.1 mm 2 mps 745 mmHg 61%
    18:00 +27°C° 0.1 mm 2 mps 745 mmHg 62%
    19:00 +26°C° 0 mm 2 mps 745 mmHg 63%
    20:00 +25°C° 0 mm 2 mps 745 mmHg 64%
    21:00 +25°C° 0 mm 2 mps 745 mmHg 65%
    22:00 +24°C° 0 mm 2 mps 745 mmHg 67%
    23:00 +24°C° 0 mm 1 mps 745 mmHg 69%

    24 July, Wednesday

    Time Temperature Precipitation Wind Pressure Humidity
    00:00 +23°C° 0 mm 1 mps 745 mmHg 71%
    01:00 +23°C° 0 mm 1 mps 745 mmHg 72%
    02:00 +21°C° 0 mm 0 mps 745 mmHg 74%
    03:00 +20°C° 0 mm 0 mps 745 mmHg 76%
    04:00 +21°C° 0.2 mm 0 mps 745 mmHg 76%
    05:00 +21°C° 0.2 mm 0 mps 745 mmHg 77%
    06:00 +23°C° 0.2 mm 1 mps 745 mmHg 77%
    07:00 +25°C° 0.2 mm 1 mps 744 mmHg 70%
    08:00 +26°C° 0.2 mm 2 mps 744 mmHg 64%
    09:00 +28°C° 0.2 mm 2 mps 744 mmHg 58%
    10:00 +29°C° 0.2 mm 3 mps 744 mmHg 53%
    11:00 +30°C° 0.2 mm 3 mps 744 mmHg 49%
    12:00 +32°C° 0.2 mm 4 mps 744 mmHg 45%
    13:00 +32°C° 0.5 mm 4 mps 743 mmHg 46%
    14:00 +32°C° 0.5 mm 4 mps 743 mmHg 48%
    15:00 +32°C° 0.5 mm 4 mps 743 mmHg 49%
    16:00 +32°C° 0.2 mm 4 mps 743 mmHg 51%
    17:00 +32°C° 0.2 mm 4 mps 743 mmHg 53%
    18:00 +30°C° 0.2 mm 4 mps 743 mmHg 54%
    19:00 +29°C° 0.5 mm 3 mps 744 mmHg 59%
    20:00 +27°C° 0.5 mm 3 mps 744 mmHg 65%
    21:00 +25°C° 0.5 mm 2 mps 744 mmHg 70%
    22:00 +24°C° 0.6 mm 2 mps 744 mmHg 72%
    23:00 +24°C° 0.6 mm 1 mps 744 mmHg 74%

    25 July, Thursday

    Time Temperature Precipitation Wind Pressure Humidity
    00:00 +21°C° 0.6 mm 0 mps 744 mmHg 76%
    01:00 +23°C° 0.3 mm 1 mps 744 mmHg 78%
    02:00 +23°C° 0.3 mm 1 mps 744 mmHg 80%
    03:00 +23°C° 0.3 mm 2 mps 744 mmHg 82%
    04:00 +23°C° 0.1 mm 2 mps 744 mmHg 83%
    05:00 +23°C° 0.1 mm 2 mps 745 mmHg 83%
    06:00 +23°C° 0.1 mm 2 mps 745 mmHg 84%
    07:00 +25°C° 0 mm 1 mps 744 mmHg 77%
    08:00 +26°C° 0 mm 1 mps 744 mmHg 70%
    09:00 +28°C° 0 mm 1 mps 744 mmHg 62%
    10:00 +29°C° 0 mm 1 mps 744 mmHg 56%
    11:00 +31°C° 0 mm 1 mps 744 mmHg 50%
    12:00 +32°C° 0 mm 2 mps 744 mmHg 43%
    13:00 +32°C° 0 mm 2 mps 744 mmHg 44%
    14:00 +32°C° 0 mm 2 mps 744 mmHg 44%
    15:00 +32°C° 0 mm 2 mps 744 mmHg 44%
    16:00 +30°C° 0.1 mm 3 mps 744 mmHg 51%
    17:00 +29°C° 0.1 mm 4 mps 744 mmHg 59%
    18:00 +28°C° 0.1 mm 5 mps 744 mmHg 66%
    19:00 +27°C° 0 mm 4 mps 744 mmHg 70%
    20:00 +26°C° 0 mm 3 mps 745 mmHg 74%
    21:00 +25°C° 0 mm 3 mps 745 mmHg 78%
    22:00 +24°C° 0.1 mm 2 mps 745 mmHg 79%
    23:00 +24°C° 0.1 mm 2 mps 745 mmHg 81%

    26 July, Friday

    Time Temperature Precipitation Wind Pressure Humidity
    00:00 +23°C° 0.1 mm 2 mps 744 mmHg 82%
    01:00 +23°C° 0.4 mm 2 mps 744 mmHg 86%
    02:00 +21°C° 0.4 mm 2 mps 744 mmHg 89%
    03:00 +20°C° 0.4 mm 2 mps 744 mmHg 93%
    04:00 +20°C° 0.6 mm 2 mps 744 mmHg 92%
    05:00 +20°C° 0.6 mm 2 mps 744 mmHg 92%
    06:00 +20°C° 0.6 mm 3 mps 744 mmHg 91%
    07:00 +20°C° 0.6 mm 2 mps 744 mmHg 90%
    08:00 +21°C° 0.6 mm 2 mps 744 mmHg 89%
    09:00 +21°C° 0.6 mm 2 mps 744 mmHg 88%
    10:00 +23°C° 0.5 mm 2 mps 743 mmHg 86%
    11:00 +23°C° 0.5 mm 1 mps 743 mmHg 83%
    12:00 +24°C° 0.5 mm 1 mps 743 mmHg 80%
    13:00 +25°C° 0.2 mm 1 mps 743 mmHg 73%
    14:00 +27°C° 0.2 mm 1 mps 743 mmHg 67%
    15:00 +28°C° 0.2 mm 1 mps 743 mmHg 60%
    16:00 +28°C° 0 mm 1 mps 743 mmHg 61%
    17:00 +27°C° 0 mm 1 mps 742 mmHg 63%
    18:00 +27°C° 0 mm 2 mps 742 mmHg 65%
    19:00 +26°C° 0 mm 1 mps 742 mmHg 68%
    20:00 +25°C° 0 mm 1 mps 743 mmHg 71%
    21:00 +24°C° 0 mm 1 mps 743 mmHg 74%
    22:00 +24°C° 0 mm 2 mps 743 mmHg 77%
    23:00 +23°C° 0 mm 2 mps 742 mmHg 79%
    Show more